CXK69 KJFK-TXKF

Flight info

Callsign CXK69
Flight time N/A
Altitude 37000
Route SHIPP Y487 KINGG/M078F370 DCT KINER L461 BOVIC MOMOM1
Aircraft B737/M-SDE1E2E3FGHIJ2J4J7M3P2RWXY/LU2D1G1

Departure

Time N/A
Airport John F. Kennedy International Airport (KJFK)

Arrival

Time 2026-04-24 20:04
Airport L.F. Wade International Airport (TXKF)
Time Latitude Longitude Altitude Speed Heading
2026-04-24 18:54 38.96988 -70.97096 36899 ft 509 kts 154°
2026-04-24 18:55 38.87760 -70.90232 36872 ft 513 kts 155°
2026-04-24 18:56 38.81573 -70.85640 36899 ft 515 kts 155°
2026-04-24 18:56 38.75359 -70.81037 36889 ft 517 kts 155°
2026-04-24 18:57 38.69122 -70.76426 36884 ft 518 kts 155°
2026-04-24 18:57 38.62875 -70.71816 36840 ft 518 kts 155°
2026-04-24 18:58 38.56636 -70.67221 36876 ft 517 kts 155°
2026-04-24 18:58 38.50406 -70.62643 36880 ft 516 kts 155°
2026-04-24 18:59 38.44190 -70.58086 36875 ft 515 kts 155°
2026-04-24 18:59 38.37985 -70.53544 36898 ft 514 kts 155°
2026-04-24 19:00 38.31787 -70.49017 36867 ft 513 kts 155°
2026-04-24 19:00 38.25554 -70.44476 36880 ft 520 kts 155°
2026-04-24 19:01 38.19244 -70.39883 36866 ft 523 kts 155°
2026-04-24 19:01 38.13146 -70.34893 36861 ft 530 kts 144°
2026-04-24 19:02 38.08774 -70.29330 36884 ft 532 kts 135°
2026-04-24 19:02 38.03004 -70.21255 36867 ft 531 kts 135°
2026-04-24 19:03 37.98016 -70.14350 36859 ft 530 kts 136°
2026-04-24 19:03 37.92994 -70.07509 36862 ft 530 kts 136°
2026-04-24 19:04 37.87962 -70.00702 36859 ft 529 kts 136°
2026-04-24 19:04 37.82929 -69.93907 36828 ft 529 kts 136°
2026-04-24 19:05 37.77906 -69.87131 36850 ft 527 kts 136°
2026-04-24 19:05 37.72891 -69.80380 36857 ft 527 kts 136°
2026-04-24 19:06 37.67878 -69.73644 36850 ft 526 kts 136°
2026-04-24 19:06 37.62868 -69.66927 36852 ft 525 kts 136°
2026-04-24 19:07 37.57855 -69.60221 36843 ft 525 kts 137°
2026-04-24 19:07 37.53686 -69.54654 36843 ft 525 kts 137°
2026-04-24 19:08 37.47830 -69.46852 36836 ft 524 kts 137°
2026-04-24 19:08 37.43662 -69.41310 36840 ft 524 kts 137°
2026-04-24 19:09 37.38653 -69.34662 36839 ft 524 kts 137°
2026-04-24 19:09 37.33637 -69.28020 36839 ft 524 kts 137°
2026-04-24 19:10 37.28619 -69.21387 36843 ft 524 kts 137°
2026-04-24 19:10 37.22780 -69.13687 36813 ft 524 kts 137°
2026-04-24 19:11 37.18574 -69.08152 36838 ft 523 kts 137°
2026-04-24 19:11 37.13552 -69.01556 36834 ft 523 kts 137°
2026-04-24 19:12 37.08526 -68.94968 36828 ft 523 kts 137°
2026-04-24 19:12 37.03497 -68.88391 36828 ft 523 kts 137°
2026-04-24 19:13 36.99319 -68.82936 36837 ft 523 kts 138°
2026-04-24 19:13 36.93468 -68.75311 36778 ft 522 kts 138°
2026-04-24 19:14 36.88451 -68.68787 36821 ft 520 kts 138°
2026-04-24 19:14 36.83435 -68.62279 36825 ft 519 kts 138°
2026-04-24 19:15 36.78423 -68.55789 36824 ft 519 kts 138°
2026-04-24 19:15 36.73409 -68.49313 36833 ft 519 kts 138°
2026-04-24 19:16 36.65889 -68.39614 36824 ft 518 kts 138°
2026-04-24 19:16 36.60877 -68.33165 36810 ft 517 kts 139°
2026-04-24 19:17 36.55768 -68.26896 36812 ft 512 kts 145°
2026-04-24 19:17 36.50205 -68.21414 36817 ft 510 kts 148°
2026-04-24 19:18 36.44565 -68.16085 36826 ft 509 kts 148°
2026-04-24 19:18 36.38951 -68.10711 36823 ft 510 kts 148°
2026-04-24 19:19 36.33358 -68.05291 36815 ft 510 kts 148°
2026-04-24 19:19 36.27811 -67.99902 36820 ft 510 kts 148°
2026-04-24 19:20 36.22221 -67.94483 36825 ft 510 kts 148°
2026-04-24 19:20 36.16626 -67.89074 36814 ft 510 kts 148°
2026-04-24 19:21 36.11028 -67.83674 36823 ft 510 kts 148°
2026-04-24 19:21 36.05426 -67.78281 36798 ft 510 kts 148°
2026-04-24 19:22 35.99827 -67.72900 36808 ft 510 kts 148°
2026-04-24 19:22 35.94232 -67.67533 36818 ft 509 kts 148°
2026-04-24 19:23 35.88632 -67.62171 36818 ft 509 kts 148°
2026-04-24 19:23 35.83035 -67.56823 36814 ft 509 kts 148°
2026-04-24 19:24 35.77438 -67.51483 36773 ft 509 kts 148°
2026-04-24 19:24 35.71854 -67.46165 36809 ft 507 kts 148°
2026-04-24 19:25 35.66272 -67.40859 36819 ft 507 kts 148°
2026-04-24 19:25 35.60688 -67.35562 36822 ft 507 kts 148°
2026-04-24 19:26 35.55111 -67.30280 36816 ft 506 kts 148°
2026-04-24 19:26 35.49531 -67.25005 36809 ft 506 kts 148°
2026-04-24 19:27 35.43993 -67.19779 36814 ft 505 kts 148°
2026-04-24 19:27 35.38418 -67.14527 36819 ft 505 kts 148°
2026-04-24 19:28 35.32848 -67.09290 36820 ft 505 kts 149°
2026-04-24 19:28 35.27273 -67.04057 36821 ft 505 kts 149°
2026-04-24 19:29 35.18911 -66.96226 36797 ft 504 kts 148°
2026-04-24 19:30 35.13338 -66.91018 36820 ft 505 kts 148°
2026-04-24 19:30 35.07757 -66.85812 36830 ft 505 kts 149°
2026-04-24 19:31 35.02162 -66.80601 36833 ft 506 kts 149°
2026-04-24 19:31 34.96558 -66.75391 36832 ft 507 kts 149°
2026-04-24 19:32 34.90942 -66.70177 36783 ft 507 kts 149°
2026-04-24 19:32 34.85299 -66.65040 36830 ft 505 kts 152°
2026-04-24 19:33 34.79460 -66.60321 36843 ft 503 kts 154°
2026-04-24 19:33 34.73574 -66.55713 36851 ft 504 kts 154°
2026-04-24 19:34 34.67695 -66.51050 36844 ft 505 kts 153°
2026-04-24 19:34 34.61830 -66.46354 36811 ft 505 kts 153°
2026-04-24 19:35 34.55977 -66.41664 36837 ft 504 kts 153°
2026-04-24 19:35 34.50126 -66.36989 36846 ft 503 kts 153°
2026-04-24 19:36 34.44277 -66.32326 36849 ft 503 kts 153°
2026-04-24 19:36 34.38426 -66.27671 36850 ft 503 kts 153°
2026-04-24 19:37 34.32580 -66.23026 36848 ft 502 kts 153°
2026-04-24 19:37 34.26749 -66.18401 36852 ft 501 kts 154°
2026-04-24 19:38 34.20919 -66.13784 36864 ft 500 kts 154°
2026-04-24 19:38 34.15139 -66.09218 36864 ft 500 kts 154°
2026-04-24 19:39 34.09317 -66.04635 36868 ft 499 kts 154°
2026-04-24 19:39 34.03504 -66.00066 36858 ft 498 kts 153°
2026-04-24 19:40 33.97713 -65.95518 36863 ft 497 kts 154°
2026-04-24 19:40 33.91924 -65.90980 36876 ft 495 kts 154°
2026-04-24 19:41 33.86153 -65.86463 36872 ft 494 kts 154°
2026-04-24 19:41 33.80400 -65.81968 36875 ft 492 kts 154°
2026-04-24 19:42 33.74669 -65.77497 36869 ft 490 kts 154°
2026-04-24 19:42 33.68960 -65.73050 36873 ft 488 kts 154°
2026-04-24 19:42 33.66110 -65.70834 36736 ft 490 kts 154°
2026-04-24 19:43 33.63227 -65.68597 36085 ft 494 kts 153°
2026-04-24 19:43 33.60347 -65.66362 35446 ft 493 kts 153°
2026-04-24 19:43 33.57467 -65.64126 34701 ft 494 kts 153°
2026-04-24 19:43 33.54583 -65.61889 33943 ft 493 kts 153°
2026-04-24 19:44 33.51705 -65.59658 33048 ft 492 kts 153°
2026-04-24 19:44 33.48839 -65.57437 32213 ft 491 kts 153°
2026-04-24 19:44 33.45961 -65.55212 31362 ft 494 kts 153°
2026-04-24 19:44 33.43112 -65.53012 30499 ft 498 kts 152°
2026-04-24 19:45 33.40222 -65.50783 29470 ft 504 kts 152°
2026-04-24 19:45 33.37278 -65.48512 28699 ft 501 kts 152°
2026-04-24 19:45 33.34369 -65.46264 27962 ft 495 kts 152°
2026-04-24 19:45 33.31493 -65.44043 27278 ft 489 kts 152°
2026-04-24 19:46 33.28609 -65.41819 26584 ft 484 kts 152°
2026-04-24 19:46 33.25830 -65.39680 25920 ft 479 kts 152°
2026-04-24 19:46 33.23039 -65.37535 25240 ft 475 kts 153°
2026-04-24 19:46 33.20271 -65.35410 24551 ft 472 kts 153°
2026-04-24 19:47 33.17484 -65.33273 23860 ft 468 kts 153°
2026-04-24 19:47 33.14794 -65.31210 23122 ft 464 kts 153°
2026-04-24 19:47 33.12088 -65.29137 22375 ft 460 kts 153°
2026-04-24 19:47 33.09413 -65.27087 21677 ft 454 kts 152°
2026-04-24 19:48 33.06775 -65.25060 21005 ft 450 kts 151°
2026-04-24 19:48 33.04352 -65.22678 20263 ft 453 kts 139°
2026-04-24 19:48 33.00094 -65.17203 18892 ft 445 kts 135°
2026-04-24 19:49 32.96046 -65.11821 17487 ft 425 kts 136°
2026-04-24 19:49 32.92149 -65.06770 16268 ft 411 kts 136°
2026-04-24 19:50 32.86278 -64.99310 14389 ft 408 kts 136°
2026-04-24 19:50 32.84342 -64.96858 13751 ft 406 kts 135°
2026-04-24 19:51 32.80509 -64.92007 12412 ft 399 kts 135°
2026-04-24 19:51 32.78614 -64.89610 11777 ft 395 kts 135°
2026-04-24 19:52 32.74889 -64.84902 10685 ft 384 kts 135°
2026-04-24 19:52 32.73103 -64.82644 10532 ft 367 kts 135°
2026-04-24 19:52 32.71388 -64.80476 10368 ft 353 kts 136°
2026-04-24 19:52 32.69737 -64.78393 10209 ft 340 kts 136°
2026-04-24 19:53 32.68149 -64.76390 10066 ft 324 kts 136°
2026-04-24 19:53 32.66636 -64.74482 9982 ft 310 kts 136°
2026-04-24 19:53 32.63683 -64.70770 9162 ft 306 kts 136°
2026-04-24 19:54 32.62229 -64.68943 8802 ft 304 kts 136°
2026-04-24 19:54 32.60782 -64.67125 8446 ft 302 kts 136°
2026-04-24 19:54 32.59342 -64.65317 8096 ft 301 kts 136°
2026-04-24 19:54 32.57912 -64.63521 7746 ft 299 kts 136°
2026-04-24 19:55 32.57429 -64.62914 7635 ft 298 kts 136°
2026-04-24 19:55 32.55073 -64.59957 7043 ft 296 kts 136°
2026-04-24 19:55 32.53666 -64.58192 6718 ft 294 kts 136°
2026-04-24 19:55 32.52266 -64.56436 6382 ft 293 kts 136°
2026-04-24 19:56 32.50877 -64.54696 6019 ft 288 kts 136°
2026-04-24 19:56 32.49513 -64.52988 5673 ft 283 kts 136°
2026-04-24 19:56 32.48187 -64.51294 5349 ft 277 kts 135°
2026-04-24 19:56 32.46918 -64.49596 5109 ft 274 kts 135°
2026-04-24 19:57 32.45671 -64.47918 5001 ft 269 kts 135°
2026-04-24 19:57 32.44861 -64.46830 4921 ft 262 kts 135°
2026-04-24 19:57 32.43672 -64.45245 4816 ft 252 kts 138°
2026-04-24 19:57 32.41775 -64.44091 4606 ft 221 kts 184°
2026-04-24 19:58 32.40283 -64.44171 4449 ft 216 kts 197°
2026-04-24 19:58 32.38806 -64.44534 4173 ft 217 kts 199°
2026-04-24 19:58 32.37340 -64.44919 3947 ft 215 kts 199°
2026-04-24 19:58 32.35889 -64.45293 3705 ft 212 kts 199°
2026-04-24 19:59 32.34928 -64.45562 3534 ft 207 kts 205°
2026-04-24 19:59 32.33819 -64.46499 3370 ft 192 kts 236°
2026-04-24 19:59 32.33274 -64.47908 3099 ft 183 kts 259°
2026-04-24 19:59 32.33277 -64.49347 2853 ft 174 kts 278°
2026-04-24 20:00 32.33499 -64.50699 2634 ft 160 kts 278°
2026-04-24 20:00 32.33708 -64.51996 2432 ft 162 kts 278°
2026-04-24 20:00 32.33919 -64.53284 2221 ft 157 kts 278°
2026-04-24 20:00 32.34133 -64.54558 2016 ft 159 kts 277°
2026-04-24 20:01 32.34348 -64.55818 1824 ft 147 kts 277°
2026-04-24 20:01 32.34540 -64.56939 1611 ft 130 kts 278°
2026-04-24 20:01 32.34710 -64.57945 1431 ft 121 kts 278°
2026-04-24 20:01 32.34877 -64.58930 1275 ft 123 kts 278°
2026-04-24 20:02 32.35045 -64.59920 1109 ft 122 kts 278°
2026-04-24 20:02 32.35214 -64.60912 952 ft 124 kts 278°
2026-04-24 20:02 32.35387 -64.61923 801 ft 127 kts 278°
2026-04-24 20:02 32.35558 -64.62944 618 ft 126 kts 277°
2026-04-24 20:03 32.35734 -64.63958 446 ft 126 kts 278°
2026-04-24 20:03 32.35906 -64.64983 301 ft 128 kts 278°
2026-04-24 20:03 32.36085 -64.66012 116 ft 127 kts 278°
2026-04-24 20:03 32.36254 -64.66996 27 ft 111 kts 283°
2026-04-24 20:04 32.36383 -64.67749 23 ft 76 kts 281°
2026-04-24 20:04 32.36462 -64.68224 27 ft 42 kts 281°
2026-04-24 20:04 32.36517 -64.68529 27 ft 35 kts 281°
2026-04-24 20:04 32.36561 -64.68792 28 ft 30 kts 282°
2026-04-24 20:05 32.36603 -64.69029 28 ft 29 kts 281°
2026-04-24 20:05 32.36588 -64.69249 28 ft 27 kts 247°
2026-04-24 20:05 32.36518 -64.69443 25 ft 25 kts 247°
2026-04-24 20:05 32.36455 -64.69624 26 ft 23 kts 249°
2026-04-24 20:06 32.36395 -64.69797 25 ft 22 kts 247°
2026-04-24 20:06 32.36335 -64.69963 23 ft 22 kts 247°
2026-04-24 20:06 32.36285 -64.70106 25 ft 17 kts 247°
2026-04-24 20:06 32.36248 -64.70202 23 ft 7 kts 247°
2026-04-24 20:07 32.36237 -64.70234 23 ft 6 kts 248°
2026-04-24 20:07 32.36226 -64.70268 26 ft 2 kts 249°
2026-04-24 20:07 32.36221 -64.70282 23 ft 2 kts 245°
2026-04-24 20:07 32.36216 -64.70294 23 ft 2 kts 244°
2026-04-24 20:08 32.36215 -64.70295 25 ft 0 kts 245°